CXA584 MDSD-CYYZ

Flight info

Callsign CXA584
Flight time N/A
Altitude 27000
Route LERED2L LERED DCT LNHOM/M083F280 L452 OXANA/N0499F280 DCT ECG DCT COLIN DCT JERES DCT ETG DCT WOZEE LINNG3
Aircraft B77L/H-SDE1E2E3FGHIJ2J3J4J5M1RWXY/LB1D1

Departure

Time 2026-05-06 08:21
Airport Las Américas International Airport (MDSD)

Arrival

Time N/A
Airport Toronto Pearson International Airport (CYYZ)
Time Latitude Longitude Altitude Speed Heading
2026-05-06 07:29 18.43133 -69.67539 58 ft 0 kts 261°
2026-05-06 08:10 18.43133 -69.67535 58 ft 2 kts 259°
2026-05-06 08:10 18.43138 -69.67520 58 ft 2 kts 239°
2026-05-06 08:10 18.43147 -69.67507 58 ft 2 kts 225°
2026-05-06 08:11 18.43158 -69.67498 58 ft 2 kts 210°
2026-05-06 08:11 18.43172 -69.67491 58 ft 2 kts 194°
2026-05-06 08:11 18.43186 -69.67489 59 ft 2 kts 179°
2026-05-06 08:11 18.43201 -69.67490 58 ft 2 kts 164°
2026-05-06 08:12 18.43208 -69.67493 58 ft 0 kts 158°
2026-05-06 08:15 18.43205 -69.67492 58 ft 3 kts 158°
2026-05-06 08:15 18.43140 -69.67468 59 ft 16 kts 162°
2026-05-06 08:16 18.43008 -69.67416 60 ft 20 kts 150°
2026-05-06 08:16 18.42966 -69.67273 64 ft 20 kts 88°
2026-05-06 08:16 18.42959 -69.67152 68 ft 13 kts 98°
2026-05-06 08:16 18.42915 -69.67070 70 ft 14 kts 148°
2026-05-06 08:17 18.42818 -69.67028 70 ft 15 kts 160°
2026-05-06 08:17 18.42696 -69.66985 71 ft 21 kts 160°
2026-05-06 08:17 18.42539 -69.66930 72 ft 26 kts 160°
2026-05-06 08:17 18.42345 -69.66855 74 ft 33 kts 161°
2026-05-06 08:18 18.42102 -69.66767 74 ft 40 kts 161°
2026-05-06 08:18 18.41818 -69.66666 74 ft 38 kts 160°
2026-05-06 08:18 18.41649 -69.66576 72 ft 17 kts 110°
2026-05-06 08:18 18.41608 -69.66467 73 ft 8 kts 116°
2026-05-06 08:19 18.41602 -69.66412 73 ft 6 kts 46°
2026-05-06 08:19 18.41623 -69.66410 73 ft 0 kts 347°
2026-05-06 08:20 18.41626 -69.66411 73 ft 4 kts 347°
2026-05-06 08:20 18.41799 -69.66475 74 ft 56 kts 339°
2026-05-06 08:21 18.42370 -69.66683 77 ft 114 kts 340°
2026-05-06 08:21 18.43298 -69.67023 72 ft 164 kts 341°
2026-05-06 08:21 18.44435 -69.67466 320 ft 178 kts 338°
2026-05-06 08:21 18.45575 -69.67963 830 ft 184 kts 346°
2026-05-06 08:22 18.46853 -69.68346 1243 ft 194 kts 347°
2026-05-06 08:22 18.48213 -69.68808 1378 ft 214 kts 345°
2026-05-06 08:22 18.49682 -69.69346 1504 ft 233 kts 343°
2026-05-06 08:22 18.51265 -69.69930 1672 ft 252 kts 343°
2026-05-06 08:23 18.52988 -69.70565 2002 ft 265 kts 343°
2026-05-06 08:23 18.54732 -69.71208 2485 ft 270 kts 343°
2026-05-06 08:23 18.56522 -69.71867 3015 ft 274 kts 343°
2026-05-06 08:23 18.58334 -69.72535 3578 ft 276 kts 344°
2026-05-06 08:24 18.60157 -69.73206 4108 ft 278 kts 343°
2026-05-06 08:24 18.61975 -69.73907 4659 ft 281 kts 342°
2026-05-06 08:24 18.63814 -69.74644 5177 ft 284 kts 341°
2026-05-06 08:24 18.65671 -69.75385 5729 ft 285 kts 341°
2026-05-06 08:25 18.67548 -69.76129 6214 ft 289 kts 341°
2026-05-06 08:25 18.69427 -69.76873 6755 ft 290 kts 341°
2026-05-06 08:25 18.71345 -69.77632 7288 ft 292 kts 341°
2026-05-06 08:25 18.73238 -69.78382 7803 ft 293 kts 341°
2026-05-06 08:26 18.75145 -69.79137 8228 ft 297 kts 341°
2026-05-06 08:26 18.77100 -69.79911 8746 ft 298 kts 341°
2026-05-06 08:26 18.79044 -69.80681 9202 ft 300 kts 340°
2026-05-06 08:26 18.81011 -69.81461 9634 ft 304 kts 340°
2026-05-06 08:27 18.82984 -69.82243 10156 ft 305 kts 340°
2026-05-06 08:27 18.85024 -69.83051 10351 ft 319 kts 340°
2026-05-06 08:27 18.87172 -69.83902 10484 ft 336 kts 340°
2026-05-06 08:27 18.89396 -69.84784 10603 ft 351 kts 340°
2026-05-06 08:28 18.91735 -69.85711 10748 ft 365 kts 340°
2026-05-06 08:28 18.94190 -69.86684 10877 ft 379 kts 339°
2026-05-06 08:28 18.96690 -69.87676 11143 ft 388 kts 339°
2026-05-06 08:28 18.99228 -69.88683 11633 ft 389 kts 339°
2026-05-06 08:29 19.01765 -69.89690 12163 ft 389 kts 339°
2026-05-06 08:29 19.04289 -69.90693 12634 ft 391 kts 339°
2026-05-06 08:29 19.06853 -69.91712 13128 ft 393 kts 339°
2026-05-06 08:29 19.09430 -69.92737 13633 ft 395 kts 339°
2026-05-06 08:30 19.12017 -69.93765 14139 ft 397 kts 339°
2026-05-06 08:30 19.14604 -69.94795 14635 ft 400 kts 338°
2026-05-06 08:30 19.17227 -69.95839 15187 ft 401 kts 338°
2026-05-06 08:30 19.19834 -69.96877 15733 ft 403 kts 338°
2026-05-06 08:31 19.22449 -69.97919 16255 ft 405 kts 338°
2026-05-06 08:31 19.25116 -69.98981 16781 ft 407 kts 338°
2026-05-06 08:31 19.27770 -70.00040 17283 ft 410 kts 338°
2026-05-06 08:31 19.30451 -70.01109 17806 ft 412 kts 338°
2026-05-06 08:32 19.33118 -70.02172 18318 ft 413 kts 338°
2026-05-06 08:32 19.35838 -70.03258 18815 ft 415 kts 338°
2026-05-06 08:32 19.38548 -70.04340 19315 ft 417 kts 338°
2026-05-06 08:32 19.41243 -70.05416 19783 ft 418 kts 338°
2026-05-06 08:33 19.43982 -70.06509 20245 ft 421 kts 338°
2026-05-06 08:33 19.46736 -70.07610 20706 ft 423 kts 338°
2026-05-06 08:33 19.49490 -70.08712 21197 ft 424 kts 339°
2026-05-06 08:33 19.52256 -70.09818 21674 ft 425 kts 339°
2026-05-06 08:34 19.55023 -70.10926 22130 ft 426 kts 339°
2026-05-06 08:34 19.60596 -70.13158 23024 ft 429 kts 339°
2026-05-06 08:34 19.63395 -70.14279 23440 ft 431 kts 339°
2026-05-06 08:35 19.66206 -70.15406 23857 ft 432 kts 339°
2026-05-06 08:35 19.69028 -70.16537 24253 ft 434 kts 339°
2026-05-06 08:35 19.71874 -70.17675 24637 ft 436 kts 339°
2026-05-06 08:35 19.74714 -70.18812 25007 ft 438 kts 339°
2026-05-06 08:36 19.77571 -70.19955 25373 ft 440 kts 339°
2026-05-06 08:36 19.80456 -70.21112 25747 ft 442 kts 339°
2026-05-06 08:36 19.83343 -70.22269 26077 ft 444 kts 338°
2026-05-06 08:36 19.86230 -70.23427 26434 ft 445 kts 338°
2026-05-06 08:37 19.89132 -70.24592 26883 ft 444 kts 338°
2026-05-06 08:37 19.92040 -70.25759 27026 ft 444 kts 338°
2026-05-06 08:37 19.94898 -70.26907 27033 ft 441 kts 338°
2026-05-06 08:37 19.97766 -70.28061 27038 ft 439 kts 338°
2026-05-06 08:38 20.00629 -70.29213 27032 ft 439 kts 338°
2026-05-06 08:38 20.03495 -70.30366 27032 ft 440 kts 338°
2026-05-06 08:38 20.06359 -70.31520 27028 ft 439 kts 338°
2026-05-06 08:38 20.09216 -70.32672 27029 ft 439 kts 338°
2026-05-06 08:39 20.12088 -70.33830 27037 ft 439 kts 338°
2026-05-06 08:39 20.13989 -70.34598 27035 ft 439 kts 338°
2026-05-06 08:39 20.17791 -70.36134 27035 ft 438 kts 338°
2026-05-06 08:39 20.20659 -70.37294 27038 ft 439 kts 338°
2026-05-06 08:40 20.23531 -70.38456 27035 ft 438 kts 338°
2026-05-06 08:40 20.26357 -70.39601 27033 ft 438 kts 338°
2026-05-06 08:40 20.29219 -70.40762 27035 ft 439 kts 338°
2026-05-06 08:40 20.32084 -70.41925 27036 ft 439 kts 338°
2026-05-06 08:41 20.33984 -70.42698 27034 ft 438 kts 338°
2026-05-06 08:41 20.37774 -70.44239 27031 ft 438 kts 339°
2026-05-06 08:41 20.40742 -70.45117 27040 ft 441 kts 348°
2026-05-06 08:41 20.43785 -70.45558 27038 ft 442 kts 351°
2026-05-06 08:42 20.46852 -70.45920 27034 ft 443 kts 352°
2026-05-06 08:42 20.49919 -70.46278 27033 ft 443 kts 351°
2026-05-06 08:42 20.52978 -70.46635 27032 ft 441 kts 351°
2026-05-06 08:42 20.55022 -70.46875 27031 ft 442 kts 351°
2026-05-06 08:43 20.59094 -70.47353 27030 ft 443 kts 351°
2026-05-06 08:43 20.62163 -70.47714 27031 ft 443 kts 351°
2026-05-06 08:43 20.65225 -70.48074 27029 ft 442 kts 351°
2026-05-06 08:43 20.68291 -70.48435 27030 ft 442 kts 351°
2026-05-06 08:44 20.71357 -70.48797 27030 ft 442 kts 351°
2026-05-06 08:44 20.74424 -70.49159 27030 ft 442 kts 351°
2026-05-06 08:44 20.77489 -70.49521 27029 ft 442 kts 351°
2026-05-06 08:44 20.80534 -70.49881 27032 ft 442 kts 351°
2026-05-06 08:45 20.83622 -70.50246 27027 ft 442 kts 351°
2026-05-06 08:45 20.86662 -70.50605 27028 ft 442 kts 351°
2026-05-06 08:45 20.89734 -70.50969 27029 ft 442 kts 351°
2026-05-06 08:45 20.92803 -70.51332 27029 ft 442 kts 351°
2026-05-06 08:46 20.95870 -70.51695 27025 ft 442 kts 351°
2026-05-06 08:46 20.98903 -70.52055 27029 ft 442 kts 351°
2026-05-06 08:46 21.01956 -70.52416 27028 ft 442 kts 351°
2026-05-06 08:46 21.05043 -70.52782 27027 ft 441 kts 351°
2026-05-06 08:47 21.08099 -70.53145 27028 ft 442 kts 351°
2026-05-06 08:47 21.11171 -70.53509 27034 ft 442 kts 351°
2026-05-06 08:47 21.14205 -70.53870 27034 ft 442 kts 351°
2026-05-06 08:47 21.17265 -70.54234 27033 ft 443 kts 351°
2026-05-06 08:48 21.20324 -70.54597 27035 ft 442 kts 351°
2026-05-06 08:48 21.23395 -70.54961 27034 ft 442 kts 351°
2026-05-06 08:48 21.26446 -70.55325 27034 ft 441 kts 351°
2026-05-06 08:48 21.29540 -70.55693 27034 ft 443 kts 351°
2026-05-06 08:49 21.32598 -70.56057 27035 ft 443 kts 351°
2026-05-06 08:49 21.35657 -70.56421 27034 ft 443 kts 351°
2026-05-06 08:49 21.38749 -70.56789 27034 ft 444 kts 351°
2026-05-06 08:49 21.41825 -70.57156 27032 ft 443 kts 351°
2026-05-06 08:50 21.43871 -70.57399 27033 ft 442 kts 351°
2026-05-06 08:50 21.47927 -70.57883 27035 ft 443 kts 351°
2026-05-06 08:50 21.50999 -70.58250 27032 ft 443 kts 351°
2026-05-06 08:50 21.54095 -70.58619 27033 ft 443 kts 351°
2026-05-06 08:51 21.57124 -70.58981 27031 ft 442 kts 351°
2026-05-06 08:51 21.60177 -70.59345 27029 ft 441 kts 351°
2026-05-06 08:51 21.63242 -70.59712 27029 ft 444 kts 351°
2026-05-06 08:51 21.66345 -70.60084 27027 ft 444 kts 351°
2026-05-06 08:52 21.69430 -70.60452 27026 ft 444 kts 351°
2026-05-06 08:52 21.71464 -70.60696 27025 ft 443 kts 351°
2026-05-06 08:52 21.75576 -70.61188 27024 ft 444 kts 351°
2026-05-06 08:52 21.78610 -70.61552 27024 ft 443 kts 351°
2026-05-06 08:53 21.81693 -70.61921 27024 ft 443 kts 350°
2026-05-06 08:53 21.84747 -70.62287 27026 ft 444 kts 350°
2026-05-06 08:53 21.87850 -70.62659 27025 ft 443 kts 351°
2026-05-06 08:53 21.89885 -70.62903 27026 ft 443 kts 350°
2026-05-06 08:54 21.93962 -70.63393 27026 ft 444 kts 351°
2026-05-06 08:54 21.96041 -70.63642 27026 ft 443 kts 351°
2026-05-06 08:54 22.00132 -70.64133 27025 ft 444 kts 350°
2026-05-06 08:54 22.02175 -70.64379 27025 ft 444 kts 350°
2026-05-06 08:55 22.05265 -70.64751 27026 ft 445 kts 350°
2026-05-06 08:55 22.09348 -70.65242 27035 ft 444 kts 350°
2026-05-06 08:55 22.12433 -70.65613 27040 ft 443 kts 350°
2026-05-06 08:55 22.15517 -70.65984 27040 ft 444 kts 349°
2026-05-06 08:56 22.18576 -70.66354 27041 ft 445 kts 350°
2026-05-06 08:56 22.20635 -70.66602 27040 ft 444 kts 350°
2026-05-06 08:56 22.24726 -70.67094 27041 ft 443 kts 349°
2026-05-06 08:56 22.27783 -70.67463 27041 ft 444 kts 349°
2026-05-06 08:57 22.30849 -70.67833 27039 ft 443 kts 349°
2026-05-06 08:57 22.33913 -70.68203 27040 ft 443 kts 350°
2026-05-06 08:57 22.36998 -70.68576 27041 ft 444 kts 350°
2026-05-06 08:57 22.39037 -70.68823 27040 ft 444 kts 349°
2026-05-06 08:58 22.42101 -70.69192 27041 ft 445 kts 350°
2026-05-06 08:58 22.46220 -70.69691 27039 ft 444 kts 350°
2026-05-06 08:58 22.48252 -70.69936 27039 ft 444 kts 350°
2026-05-06 08:58 22.51323 -70.70308 27041 ft 444 kts 349°
2026-05-06 08:59 22.54395 -70.70680 27041 ft 444 kts 349°
2026-05-06 08:59 22.57481 -70.71054 27039 ft 444 kts 349°
2026-05-06 08:59 22.61565 -70.71549 27039 ft 442 kts 349°
2026-05-06 08:59 22.64644 -70.71922 27041 ft 444 kts 349°
2026-05-06 09:00 22.66685 -70.72169 27040 ft 443 kts 349°
2026-05-06 09:00 22.70768 -70.72665 27040 ft 443 kts 349°
2026-05-06 09:00 22.73821 -70.73036 27038 ft 443 kts 349°
2026-05-06 09:00 22.76909 -70.73412 27039 ft 443 kts 349°
2026-05-06 09:01 22.79963 -70.73782 27038 ft 443 kts 349°
2026-05-06 09:01 22.82027 -70.74033 27040 ft 444 kts 349°
2026-05-06 09:01 22.85087 -70.74406 27040 ft 444 kts 349°
2026-05-06 09:01 22.89212 -70.74908 27038 ft 443 kts 349°
2026-05-06 09:02 22.91226 -70.75153 27040 ft 442 kts 349°
2026-05-06 09:02 22.95342 -70.75655 27040 ft 443 kts 349°
2026-05-06 09:02 22.98373 -70.76023 27042 ft 441 kts 349°
2026-05-06 09:02 23.00416 -70.76273 27049 ft 443 kts 349°
2026-05-06 09:03 23.04544 -70.76776 27049 ft 444 kts 349°
2026-05-06 09:03 23.07620 -70.77151 27054 ft 445 kts 349°
2026-05-06 09:03 23.09658 -70.77401 27055 ft 445 kts 349°
2026-05-06 09:03 23.13766 -70.77902 27058 ft 445 kts 349°
2026-05-06 09:04 23.15798 -70.78150 27059 ft 444 kts 349°
2026-05-06 09:04 23.19900 -70.78651 27061 ft 443 kts 349°
2026-05-06 09:04 23.21957 -70.78903 27060 ft 443 kts 349°
2026-05-06 09:04 23.26045 -70.79404 27060 ft 443 kts 349°
2026-05-06 09:05 23.29109 -70.79779 27060 ft 445 kts 349°
2026-05-06 09:05 23.32199 -70.80157 27059 ft 445 kts 349°
2026-05-06 09:05 23.34224 -70.80405 27062 ft 444 kts 349°
2026-05-06 09:05 23.37289 -70.80781 27058 ft 443 kts 349°
2026-05-06 09:06 23.40403 -70.81163 27063 ft 445 kts 349°
2026-05-06 09:06 23.43444 -70.81537 27061 ft 445 kts 349°
2026-05-06 09:06 23.46521 -70.81914 27060 ft 444 kts 349°
2026-05-06 09:06 23.49610 -70.82293 27062 ft 443 kts 349°
2026-05-06 09:07 23.52691 -70.82671 27057 ft 442 kts 349°
2026-05-06 09:07 23.56786 -70.83176 27060 ft 443 kts 349°
2026-05-06 09:07 23.59827 -70.83549 27059 ft 444 kts 349°
2026-05-06 09:07 23.62908 -70.83929 27058 ft 443 kts 349°
2026-05-06 09:08 23.65986 -70.84308 27057 ft 443 kts 349°
2026-05-06 09:08 23.69037 -70.84684 27060 ft 444 kts 349°
2026-05-06 09:08 23.72118 -70.85063 27055 ft 443 kts 349°
2026-05-06 09:08 23.74179 -70.85317 27058 ft 444 kts 349°
2026-05-06 09:09 23.78289 -70.85825 27058 ft 444 kts 349°
2026-05-06 09:09 23.80303 -70.86073 27057 ft 444 kts 349°
2026-05-06 09:09 23.84443 -70.86584 27061 ft 445 kts 349°
2026-05-06 09:09 23.87497 -70.86961 27057 ft 445 kts 349°
2026-05-06 09:10 23.90574 -70.87341 27058 ft 443 kts 349°
2026-05-06 09:10 23.93642 -70.87721 27055 ft 444 kts 349°
2026-05-06 09:10 23.96730 -70.88103 27055 ft 446 kts 349°
2026-05-06 09:10 23.99817 -70.88485 27055 ft 444 kts 349°
2026-05-06 09:11 24.02893 -70.88866 27058 ft 443 kts 349°
2026-05-06 09:11 24.05927 -70.89242 27058 ft 445 kts 349°
2026-05-06 09:11 24.09014 -70.89625 27058 ft 444 kts 349°
2026-05-06 09:11 24.12097 -70.90006 27060 ft 443 kts 349°
2026-05-06 09:12 24.14129 -70.90259 27059 ft 443 kts 349°
2026-05-06 09:12 24.18202 -70.90765 27058 ft 442 kts 349°
2026-05-06 09:12 24.21277 -70.91146 27057 ft 442 kts 349°
2026-05-06 09:12 24.23297 -70.91397 27058 ft 442 kts 349°
2026-05-06 09:13 24.26360 -70.91779 27057 ft 443 kts 349°
2026-05-06 09:13 24.29444 -70.92162 27057 ft 442 kts 349°
2026-05-06 09:13 24.33528 -70.92670 27060 ft 441 kts 349°
2026-05-06 09:13 24.36566 -70.93048 27059 ft 443 kts 349°
2026-05-06 09:14 24.39634 -70.93430 27057 ft 443 kts 349°
2026-05-06 09:14 24.41684 -70.93686 27058 ft 443 kts 349°
2026-05-06 09:14 24.45774 -70.94196 27058 ft 443 kts 349°
2026-05-06 09:14 24.48832 -70.94577 27056 ft 445 kts 349°
2026-05-06 09:15 24.50913 -70.94837 27057 ft 445 kts 349°
2026-05-06 09:15 24.54989 -70.95345 27055 ft 440 kts 349°
2026-05-06 09:15 24.57013 -70.95598 27057 ft 442 kts 349°
2026-05-06 09:15 24.61122 -70.96112 27056 ft 444 kts 349°
2026-05-06 09:16 24.64189 -70.96495 27056 ft 442 kts 349°
2026-05-06 09:16 24.67236 -70.96876 27057 ft 441 kts 349°
2026-05-06 09:16 24.70279 -70.97257 27056 ft 444 kts 349°
2026-05-06 09:16 24.73383 -70.97646 27057 ft 445 kts 349°
2026-05-06 09:17 24.76461 -70.98033 27139 ft 452 kts 349°
2026-05-06 09:17 24.79613 -70.98428 27460 ft 454 kts 349°
2026-05-06 09:17 24.82717 -70.98817 27946 ft 452 kts 349°
2026-05-06 09:18 24.88999 -70.99604 28062 ft 452 kts 349°
2026-05-06 09:18 24.95231 -71.00387 28070 ft 450 kts 349°
2026-05-06 09:19 25.00443 -71.01131 28065 ft 447 kts 344°
2026-05-06 09:19 25.07353 -71.02930 28074 ft 429 kts 342°
2026-05-06 09:20 25.12172 -71.04218 28078 ft 428 kts 342°
2026-05-06 09:20 25.18923 -71.06023 28078 ft 426 kts 342°
2026-05-06 09:21 25.23741 -71.07310 28074 ft 428 kts 342°
2026-05-06 09:21 25.30506 -71.09117 28074 ft 426 kts 342°
2026-05-06 09:22 25.35362 -71.10416 28078 ft 430 kts 342°
2026-05-06 09:22 25.42108 -71.12221 28072 ft 429 kts 342°
2026-05-06 09:23 25.46958 -71.13520 28070 ft 429 kts 342°
2026-05-06 09:23 25.52766 -71.15077 28070 ft 428 kts 342°
2026-05-06 09:24 25.59544 -71.16896 28076 ft 430 kts 342°
2026-05-06 09:24 25.65326 -71.18449 28072 ft 428 kts 342°
2026-05-06 09:25 25.70181 -71.19756 28069 ft 430 kts 342°
2026-05-06 09:25 25.76942 -71.21574 28072 ft 428 kts 342°
2026-05-06 09:26 25.81778 -71.22878 28070 ft 429 kts 342°
2026-05-06 09:26 25.87551 -71.24435 28071 ft 428 kts 342°
2026-05-06 09:27 25.93362 -71.26003 28070 ft 428 kts 342°
2026-05-06 09:27 26.00172 -71.27844 28069 ft 430 kts 342°
2026-05-06 09:28 26.05943 -71.29405 28069 ft 429 kts 342°
2026-05-06 09:28 26.11755 -71.30979 28079 ft 427 kts 342°
2026-05-06 09:29 26.17531 -71.32546 28080 ft 427 kts 342°
2026-05-06 09:29 26.23330 -71.34119 28080 ft 428 kts 342°
2026-05-06 09:30 26.29111 -71.35689 28080 ft 426 kts 342°
2026-05-06 09:30 26.34891 -71.37262 28072 ft 426 kts 342°
2026-05-06 09:31 26.39691 -71.38568 28076 ft 425 kts 342°
2026-05-06 09:31 26.45433 -71.40133 28087 ft 427 kts 342°
2026-05-06 09:32 26.52149 -71.41965 28074 ft 425 kts 342°
2026-05-06 09:32 26.56947 -71.43275 28078 ft 426 kts 342°
2026-05-06 09:33 26.62685 -71.44843 28080 ft 424 kts 342°
2026-05-06 09:33 26.69375 -71.46674 28082 ft 423 kts 342°
2026-05-06 09:34 26.74125 -71.47974 28081 ft 423 kts 342°
2026-05-06 09:34 26.79884 -71.49554 28076 ft 424 kts 343°
2026-05-06 09:35 26.85907 -71.51206 28080 ft 423 kts 342°
2026-05-06 09:35 26.91620 -71.52776 28082 ft 423 kts 343°
2026-05-06 09:36 26.97343 -71.54349 28076 ft 421 kts 343°
2026-05-06 09:36 27.03027 -71.55915 28070 ft 422 kts 343°
2026-05-06 09:37 27.08731 -71.57487 28078 ft 422 kts 343°
2026-05-06 09:37 27.14442 -71.59062 28085 ft 421 kts 343°
2026-05-06 09:38 27.20156 -71.60641 28077 ft 420 kts 343°
2026-05-06 09:38 27.25803 -71.62202 28084 ft 420 kts 343°
2026-05-06 09:39 27.31506 -71.63780 28085 ft 420 kts 343°
2026-05-06 09:39 27.37198 -71.65357 28088 ft 420 kts 342°
2026-05-06 09:40 27.42868 -71.66930 28088 ft 420 kts 342°
2026-05-06 09:40 27.51365 -71.69289 28094 ft 419 kts 342°
2026-05-06 09:41 27.57060 -71.70873 28093 ft 420 kts 342°
2026-05-06 09:41 27.62709 -71.72446 28090 ft 418 kts 343°
2026-05-06 09:42 27.68383 -71.74027 28092 ft 420 kts 342°
2026-05-06 09:42 27.74068 -71.75613 28094 ft 419 kts 342°
2026-05-06 09:43 27.79699 -71.77186 28093 ft 420 kts 342°
2026-05-06 09:43 27.85362 -71.78769 28093 ft 418 kts 342°
2026-05-06 09:44 27.91025 -71.80354 28096 ft 419 kts 342°
2026-05-06 09:44 27.96703 -71.81945 28095 ft 419 kts 342°
2026-05-06 09:45 28.02326 -71.83522 28094 ft 418 kts 342°
2026-05-06 09:45 28.07970 -71.85107 28092 ft 418 kts 343°
2026-05-06 09:46 28.13619 -71.86694 28102 ft 416 kts 343°
2026-05-06 09:46 28.19274 -71.88286 28104 ft 418 kts 342°
2026-05-06 09:47 28.24904 -71.89872 28103 ft 417 kts 343°
2026-05-06 09:47 28.30540 -71.91461 28102 ft 417 kts 342°
2026-05-06 09:48 28.36166 -71.93050 28099 ft 417 kts 342°
2026-05-06 09:48 28.41823 -71.94649 28106 ft 415 kts 342°
2026-05-06 09:49 28.47420 -71.96233 28104 ft 415 kts 343°
2026-05-06 09:49 28.53021 -71.97819 28109 ft 415 kts 343°
2026-05-06 09:50 28.58620 -71.99407 28105 ft 415 kts 343°
2026-05-06 09:50 28.64269 -72.01012 28104 ft 416 kts 343°
2026-05-06 09:51 28.69857 -72.02599 28111 ft 416 kts 343°
2026-05-06 09:51 28.75462 -72.04195 28109 ft 415 kts 342°
2026-05-06 09:52 28.81053 -72.05787 28112 ft 415 kts 343°
2026-05-06 09:52 28.86647 -72.07382 28106 ft 413 kts 343°
2026-05-06 09:53 28.92245 -72.08981 28105 ft 414 kts 343°
2026-05-06 09:53 28.97825 -72.10575 28105 ft 412 kts 343°
2026-05-06 09:54 29.03409 -72.12173 28108 ft 413 kts 343°
2026-05-06 09:54 29.08986 -72.13770 28110 ft 414 kts 343°